Location: Alsip
(41.6689°N, 87.7387°W)
Time: 14:13:52
(UTC+00:00)

Cosmos 1980 - Pass Details

Date: 14 July 2020
Orbit: 839 x 847 km, 71.0° (Epoch: 04 August)

Event Time Altitude Azimuth Distance (km) Brightness Sun altitude
Rises 02:41:51 0° 203° (SSW) 3,377 6.6 -12.3°
Reaches altitude 10° 02:44:16 10° 204° (SSW) 2,447 5.9 -12.6°
Maximum altitude 02:49:54 87° 292° (WNW) 847 3.7 -13.4°
Drops below altitude 10° 02:55:34 10° 23° (NNE) 2,464 6.4 -14.1°
Sets 02:58:01 0° 24° (NNE) 3,404 7.2 -14.4°
